Tracking 19177 objects as of 25-May-2018
HD Live streaming from Space Station
objects crossing your sky now

COSMOS 1908

Track COSMOS 1908 now!
10-day predictions
COSMOS 1908 is classified as:


NORAD ID: 18748
Int'l Code: 1988-001A
Perigee: 520.3 km
Apogee: 540.3 km
Inclination: 82.5 °
Period: 95.1 minutes
Semi major axis: 6901 km
RCS: 8.8422 m2 (large)
Launch date: January 6, 1988
Source: Commonwealth of Independent States (former USSR) (CIS)
Launch site: PLESETSK MISSILE AND SPACE COMPLEX (PKMTR)
aabbcc
Your satellite tracking list
Your tracking list is empty




NASA's NSSDC Master Catalog

Two Line Element Set (TLE):
1 18748U 88001A   18144.42176054 +.00000258 +00000-0 +12344-4 0  9995
2 18748 082.4737 085.0695 0014540 144.2409 215.9799 15.14283172657130
Source of the keplerian elements: AFSPC